CAPE
0 0 0 0 0 0 0 0 0 0 0 0 0 0 0 0 0 0 0 0 39 285 273 440 529 497 699 459 372 203 294 145 119 311 377 23 6 4 8 8 65 293 334 276 160 85 2 7 0
0 0 0 0 0 0 0 0 0 0 0 0 0 0 0 0 0 0 0 0 73 223 170 266 334 431 529 436 407 187 188 114 17 234 231 18 7 3 6 2 7 60 217 209 79 26 2 2 4
0 0 0 0 0 0 0 0 0 0 0 0 0 0 0 0 0 0 0 38 53 141 33 72 188 363 529 386 447 193 12 94 8 97 110 18 4 9 5 3 3 3 5 8 7 0 0 21 9
0 0 0 0 0 0 0 0 0 0 0 0 0 0 0 0 0 0 15 29 2 82 0 0 109 165 336 237 355 274 89 53 22 1 28 9 7 5 6 5 5 6 6 4 3 1 32 0 8
0 0 0 0 0 0 0 0 0 0 0 0 0 0 0 0 0 0 7 0 9 0 0 0 37 73 164 287 282 355 191 48 27 0 1 21 4 4 1 3 2 3 2 4 1 3 0 0 0
0 0 0 0 0 0 0 0 0 0 0 0 0 0 0 0 0 0 0 0 18 0 0 0 0 0 99 152 166 340 184 69 0 0 0 0 4 6 0 1 3 5 3 3 3 4 0 0 0
0 0 0 0 0 0 0 0 0 0 0 0 0 0 0 0 0 0 0 10 0 0 0 0 0 0 0 19 2 232 212 81 0 0 0 0 0 4 2 0 3 3 2 5 2 0 0 0 0
0 0 0 0 0 0 0 0 0 0 0 0 0 0 0 0 0 0 0 36 21 0 0 0 0 0 0 0 0 45 212 83 0 0 0 0 0 0 0 0 1 3 2 1 0 0 0 0 0
0 0 0 0 0 0 0 0 0 0 0 0 0 0 0 0 0 0 0 43 21 0 0 0 0 0 0 0 0 0 105 28 0 0 0 0 0 0 0 0 0 0 0 0 0 0 0 0 0
0 0 0 0 0 0 0 0 0 0 0 0 0 0 0 0 0 0 0 37 42 0 0 0 0 0 0 0 0 0 0 0 0 0 0 0 0 0 0 0 0 0 0 0 0 0 0 0 0
0 0 0 0 0 0 0 0 0 0 0 0 0 0 0 0 0 0 0 1 34 17 0 0 0 0 0 0 0 0 0 0 0 0 0 0 0 0 0 0 0 0 0 0 0 0 0 0 0
0 0 0 0 0 0 0 0 0 0 0 0 0 0 0 0 0 0 0 0 24 20 25 0 0 0 0 0 0 0 0 0 0 0 0 0 0 0 0 0 0 0 0 0 0 0 0 0 0
0 0 0 0 0 0 0 0 0 0 0 0 0 0 0 0 0 0 0 0 5 42 25 15 0 0 0 0 0 0 0 0 0 0 0 1 0 0 0 0 0 0 0 0 0 0 0 0 0
0 0 0 0 0 0 0 0 0 0 0 0 0 0 0 0 0 0 0 0 10 48 50 33 10 7 0 0 0 0 0 0 0 0 0 0 0 0 0 0 0 0 0 0 0 0 0 0 0
0 0 0 0 0 0 0 0 0 0 0 0 0 0 0 0 0 0 0 0 0 16 61 47 20 15 17 0 2 3 3 0 0 0 3 1 0 0 0 0 0 0 0 0 0 0 0 0 0
0 0 0 0 0 0 0 0 0 0 0 0 0 0 0 0 0 0 0 0 0 0 25 38 35 22 17 9 9 1 2 1 0 1 1 1 2 0 0 0 0 0 0 0 0 0 0 0 0
0 0 0 0 0 0 0 0 0 0 0 0 0 0 0 0 0 0 0 0 0 0 4 18 24 21 20 11 16 8 6 13 6 5 1 2 2 0 0 0 0 0 0 0 0 0 0 0 0
0 0 0 0 0 0 0 0 0 0 0 0 0 0 0 0 0 0 0 0 0 0 0 0 0 0 0 0 2 3 3 17 17 17 5 1 2 1 0 0 0 0 0 0 0 0 0 0 0
0 0 0 0 0 0 0 0 0 0 0 0 0 0 0 0 0 0 0 0 0 0 0 0 3 0 0 0 0 0 0 3 4 5 5 8 4 5 4 1 0 0 0 0 0 0 0 0 0
0 0 0 0 0 0 0 0 0 0 0 0 0 0 0 0 0 0 0 0 0 0 0 0 0 0 0 0 0 0 0 2 5 9 7 5 8 6 5 3 2 1 0 0 0 0 0 0 0
0 0 0 0 0 0 0 0 0 0 0 0 0 0 0 0 0 0 0 0 0 0 0 0 0 0 1 0 0 0 0 0 10 7 11 10 10 9 9 7 7 10 0 1 0 0 0 6 0
0 0 0 0 0 0 0 0 0 0 0 0 0 0 0 0 0 0 0 0 0 0 0 0 0 0 0 0 0 0 0 0 0 0 3 11 11 11 12 12 12 12 9 8 0 0 0 0 0
0 0 0 0 0 0 0 0 0 0 0 0 0 0 0 0 0 0 0 0 0 0 0 0 0 0 0 0 0 0 0 0 0 1 10 9 11 14 11 11 13 13 9 14 17 0 2 0 0
0 0 0 0 0 0 0 0 0 0 0 0 0 0 0 0 0 0 0 0 0 0 0 0 0 0 0 0 0 0 0 3 3 5 2 9 9 13 13 16 15 13 10 9 12 2 0 1 0
0 0 0 0 0 0 0 0 0 0 0 0 0 0 0 0 0 0 0 0 0 0 0 0 0 0 0 0 0 0 0 4 1 3 1 5 13 13 12 12 14 13 16 11 8 6 3 0 0
0 0 0 0 0 0 0 0 0 0 0 0 0 0 0 0 0 0 0 0 0 0 0 0 0 0 0 0 0 0 0 0 0 0 3 4 13 17 10 15 20 5 12 10 4 0 0 0 0
0 0 0 0 0 0 0 0 0 0 0 0 0 0 0 0 0 0 0 0 0 0 0 0 0 0 0 0 0 0 0 0 0 0 0 0 0 0 0 0 0 0 0 0 0 0 0 0 0
0 0 0 0 0 0 0 0 0 0 0 0 0 0 0 0 0 0 0 0 0 0 0 0 0 0 0 0 0 0 0 0 0 0 0 0 0 0 0 0 0 0 0 0 0 0 0 0 0
0 0 0 0 0 0 0 0 0 0 0 0 0 0 0 0 0 0 0 0 0 0 0 0 0 0 0 0 0 0 0 0 0 0 0 0 0 0 0 0 0 0 0 0 0 0 0 0 0
0 0 0 0 0 0 0 0 0 0 0 0 0 0 0 0 0 0 0 0 0 0 0 0 0 0 0 0 0 0 0 0 0 0 0 0 0 0 0 0 0 0 0 0 0 0 0 0 0
CIN
0 0 0 0 0 0 0 0 0 0 0 0 0 0 0 0 0 0 0 0 -113 -51 -58 -27 -15 -15 0 -7 -23 -87 -51 -120 -128 -56 -46 -198 -1 -1 -1 -2 -108 -26 -6 -11 -27 -61 0 -90 0
0 0 0 0 0 0 0 0 0 0 0 0 0 0 0 0 0 0 0 0 -111 -79 -79 -74 -52 -23 -3 -12 -17 -100 -102 -150 -250 -93 -102 -246 -1 0 0 -1 -3 -145 -52 -42 -77 -111 -3 -4 -7
0 0 0 0 0 0 0 0 0 0 0 0 0 0 0 0 0 0 0 -146 -144 -98 -125 -118 -87 -29 -4 -19 -7 -93 -234 -173 -251 -174 -166 -244 0 0 -1 -1 -1 -1 -1 -2 -1 -1 -1 -65 -6
0 0 0 0 0 0 0 0 0 0 0 0 0 0 0 0 0 0 -174 -166 -38 -127 0 0 -107 -78 -18 -54 -17 -41 -150 -188 -221 0 -224 0 0 0 0 0 0 0 0 0 0 0 -124 -1 -8
0 0 0 0 0 0 0 0 0 0 0 0 0 0 0 0 0 0 -127 0 -111 0 0 0 -145 -130 -80 -38 -42 -22 -94 -196 -212 0 0 -195 0 0 0 0 0 0 0 0 0 0 0 0 0
0 0 0 0 0 0 0 0 0 0 0 0 0 0 0 0 0 0 0 0 -206 0 0 0 0 0 -107 -71 -70 -17 -78 -156 0 0 0 0 -1 -1 0 0 0 0 0 0 0 0 0 0 0
0 0 0 0 0 0 0 0 0 0 0 0 0 0 0 0 0 0 0 -148 0 0 0 0 0 0 0 -173 -44 -49 -55 -122 0 0 0 0 0 -6 -5 0 0 0 0 0 0 0 0 0 0
0 0 0 0 0 0 0 0 0 0 0 0 0 0 0 0 0 0 0 -158 -222 0 0 0 0 0 0 0 0 -78 -49 -116 0 0 0 0 0 0 0 0 -1 0 0 0 0 0 0 0 0
0 0 0 0 0 0 0 0 0 0 0 0 0 0 0 0 0 0 0 -134 -197 0 0 0 0 0 0 0 0 0 -78 -143 0 0 0 0 0 0 0 0 0 0 0 0 0 0 0 0 0
0 0 0 0 0 0 0 0 0 0 0 0 0 0 0 0 0 0 0 -164 -193 0 0 0 0 0 0 0 0 0 0 0 0 0 0 0 0 0 0 0 0 0 0 0 0 0 0 0 0
0 0 0 0 0 0 0 0 0 0 0 0 0 0 0 0 0 0 0 -34 -235 -279 0 0 0 0 0 0 0 0 0 0 0 0 0 0 0 0 0 0 0 0 0 0 0 0 0 0 0
0 0 0 0 0 0 0 0 0 0 0 0 0 0 0 0 0 0 0 0 -267 -290 -287 -1 0 0 0 0 0 0 0 0 0 0 0 0 0 0 0 0 0 0 0 0 0 0 0 0 0
0 0 0 0 0 0 0 0 0 0 0 0 0 0 0 0 0 0 0 0 -55 -277 -286 -289 0 0 0 0 0 0 0 0 0 0 0 -6 0 0 0 0 0 0 0 0 0 0 0 0 0
0 0 0 0 0 0 0 0 0 0 0 0 0 0 0 0 0 0 0 0 -351 -278 -279 -303 -362 -349 0 0 0 0 0 0 0 0 0 0 0 0 0 0 0 0 0 0 0 0 0 0 0
0 0 0 0 0 0 0 0 0 0 0 0 0 0 0 0 0 0 0 0 -7 -390 -274 -289 -331 -339 -353 0 -14 -16 -18 0 0 0 -15 -12 0 0 0 0 0 0 0 0 0 0 0 0 0
0 0 0 0 0 0 0 0 0 0 0 0 0 0 0 0 0 0 0 0 0 0 -359 -306 -333 -345 -328 -347 -338 -4 -8 -7 -11 -14 -14 -17 -16 0 0 0 0 0 0 0 0 0 0 0 0
0 0 0 0 0 0 0 0 0 0 0 0 0 0 0 0 0 0 0 0 0 0 -163 -345 -339 -338 -342 -331 -325 -345 -307 -351 -106 -17 -17 -16 -19 -3 0 0 0 0 0 0 0 0 0 0 0
0 0 0 0 0 0 0 0 0 0 0 0 0 0 0 0 0 0 0 0 0 0 0 0 0 0 0 0 -95 -4 -8 -343 -335 -338 -37 -15 -12 -17 -5 0 0 0 0 0 0 0 0 0 0
0 0 0 0 0 0 0 0 0 0 0 0 0 0 0 0 0 0 0 0 0 0 0 0 -90 0 0 0 0 0 0 -8 -11 -15 -14 -16 -19 -15 -22 -18 -1 0 0 0 0 0 0 0 0
0 0 0 0 0 0 0 0 0 0 0 0 0 0 0 0 0 0 0 0 0 0 0 0 0 0 0 0 0 0 0 -4 -9 -15 -14 -15 -16 -13 -14 -19 -23 -41 0 0 0 0 0 0 0
0 0 0 0 0 0 0 0 0 0 0 0 0 0 0 0 0 0 0 0 0 0 0 0 0 0 -201 0 0 0 0 -1 -5 -9 -15 -19 -16 -17 -21 -23 -23 -25 -20 -11 0 0 -45 -54 0
0 0 0 0 0 0 0 0 0 0 0 0 0 0 0 0 0 0 0 0 0 0 0 0 0 0 0 0 0 0 0 0 0 0 -10 -21 -22 -23 -23 -23 -25 -28 -31 -39 0 0 0 0 0
0 0 0 0 0 0 0 0 0 0 0 0 0 0 0 0 0 0 0 0 0 0 0 0 0 0 0 0 0 0 0 0 -2 -15 -5 -13 -23 -22 -24 -18 -23 -27 -31 -36 -31 -4 -63 0 0
0 0 0 0 0 0 0 0 0 0 0 0 0 0 0 0 0 0 0 0 0 0 0 0 0 0 0 0 0 0 0 -25 -24 -21 -7 -10 -19 -24 -23 -25 -22 -23 -23 -24 -28 -45 0 -49 0
0 0 0 0 0 0 0 0 0 0 0 0 0 0 0 0 0 0 0 0 0 0 0 0 0 0 0 0 0 0 0 -340 -4 -9 -11 -9 -16 -23 -25 -29 -25 -24 -20 -23 -30 -39 -44 -20 0
0 0 0 0 0 0 0 0 0 0 0 0 0 0 0 0 0 0 0 0 0 0 0 0 0 0 0 0 0 0 0 0 -2 -3 -28 -21 -22 -23 -26 -24 -20 -24 -24 -29 -44 -13 0 0 0
0 0 0 0 0 0 0 0 0 0 0 0 0 0 0 0 0 0 0 0 0 0 0 0 0 0 0 0 0 0 0 0 0 0 0 0 0 0 0 0 0 0 0 0 0 0 0 0 0
0 0 0 0 0 0 0 0 0 0 0 0 0 0 0 0 0 0 0 0 0 0 0 0 0 0 0 0 0 0 0 0 0 0 0 0 0 0 0 0 0 0 0 0 0 0 0 0 0
0 0 0 0 0 0 0 0 0 0 0 0 0 0 0 0 0 0 0 0 0 0 0 0 0 0 0 0 0 0 0 0 0 0 0 0 0 0 0 0 0 0 0 0 0 0 0 0 0
0 0 0 0 0 0 0 0 0 0 0 0 0 0 0 0 0 0 0 0 0 0 0 0 0 0 0 0 0 0 0 0 0 0 0 0 0 0 0 0 0 0 0 0 0 0 0 0 0
Wind_Speed
20 20 16 14 15 14 14 11 17 16 19 20 12 22 24 21 21 23 27 30 32 32 30 28 28 27 27 27 26 26 25 24 23 21 22 20 20 21 20 18 18 20 22 22 22 22 22 22 22
20 18 14 13 13 14 15 21 14 14 20 18 2 18 20 21 20 29 31 32 33 32 30 29 28 28 29 29 29 29 27 24 24 23 23 22 21 21 22 22 19 19 21 22 22 20 21 20 21
18 17 14 13 12 14 9 7 12 14 19 8 22 14 17 23 27 30 30 33 33 31 30 29 29 29 29 28 28 29 30 29 29 27 23 22 22 22 22 22 22 22 20 20 21 21 20 21 23
16 17 14 14 15 17 12 13 11 12 9 15 16 3 16 19 28 28 34 32 32 31 30 30 30 29 28 28 28 29 29 29 29 29 27 24 24 22 22 22 22 22 22 22 22 21 20 20 22
15 17 17 15 16 16 7 7 8 10 6 6 19 21 20 25 25 30 32 31 30 30 29 29 29 29 28 28 28 28 28 28 28 28 27 26 26 25 24 23 24 23 23 23 23 22 22 21 21
19 18 18 22 15 14 3 8 4 5 8 10 15 18 22 22 26 32 31 30 29 29 29 28 28 28 27 27 26 26 26 26 26 26 25 24 23 24 23 23 23 23 23 23 23 23 23 22 22
20 20 22 18 17 12 11 15 4 4 7 16 19 18 21 29 30 32 29 28 28 27 29 28 28 27 27 26 25 25 24 24 23 23 22 22 20 18 20 20 21 21 22 22 22 22 22 23 22
19 21 23 21 19 15 15 16 18 3 10 18 21 22 25 31 31 29 29 28 28 27 28 27 26 25 25 24 24 23 23 22 22 22 22 21 21 19 20 20 20 20 21 21 21 21 21 21 22
19 23 26 28 21 21 19 18 20 20 18 20 21 22 23 30 22 23 27 28 27 26 26 25 24 24 23 23 22 22 22 22 21 22 22 21 21 21 20 20 20 20 20 20 20 20 20 19 20
22 24 22 23 27 25 24 20 17 19 17 20 20 17 6 24 24 26 27 25 25 25 25 24 23 22 22 21 21 21 21 21 21 21 21 21 21 21 21 20 20 19 19 19 19 19 18 18 17
24 27 22 23 26 30 25 21 21 14 22 26 16 5 8 25 23 23 26 25 24 23 22 23 22 21 20 19 20 20 20 20 20 20 20 20 20 20 20 20 20 19 19 18 18 17 16 16 15
27 29 27 25 24 23 24 21 22 24 25 24 8 9 10 20 27 23 23 23 22 20 20 21 20 19 19 18 18 18 18 19 19 19 18 18 18 18 18 18 17 17 17 16 16 15 15 14 15
27 22 29 28 25 23 23 24 23 28 23 18 10 8 7 13 23 18 20 19 17 18 17 18 17 17 17 17 16 16 16 17 17 17 17 15 15 15 15 15 15 15 14 14 14 13 13 13 13
22 24 24 28 28 24 25 23 22 25 20 14 8 8 5 9 14 9 12 18 16 14 16 16 16 14 14 15 15 15 14 14 14 14 13 12 11 11 12 12 12 12 11 11 11 11 12 12 12
21 26 25 29 29 29 25 28 29 22 18 14 13 13 10 5 5 13 19 19 15 12 12 14 14 14 12 12 12 12 12 12 10 10 10 8 8 7 8 8 8 9 9 9 10 11 12 11 12
24 24 35 28 30 31 28 35 29 22 19 20 17 18 12 9 7 7 15 16 15 8 10 11 10 11 10 10 9 9 9 7 8 7 6 7 5 5 5 5 6 6 7 8 9 10 11 11 11
29 35 34 31 32 29 31 33 29 23 21 20 20 19 16 15 13 9 16 15 13 11 9 9 8 10 8 6 3 4 4 3 4 2 2 2 2 4 3 3 4 6 7 8 9 10 11 12 12
39 37 33 37 31 32 36 34 26 25 24 23 21 24 22 20 9 11 11 13 13 9 9 8 8 8 7 4 3 3 3 4 3 3 4 3 3 4 5 6 6 8 9 9 11 11 11 12 13
27 36 34 34 31 32 39 41 31 27 28 28 25 25 26 31 30 21 8 12 9 9 8 9 8 7 6 5 4 5 4 6 7 8 7 7 7 6 6 7 7 8 9 9 10 13 13 13 15
28 31 33 29 31 33 37 47 38 32 34 32 29 29 26 28 31 30 16 10 8 10 9 8 8 8 8 7 7 9 7 11 11 10 9 9 8 8 8 9 9 9 10 10 10 11 14 15 15
33 34 35 32 23 31 36 45 43 40 43 38 37 34 31 27 25 23 19 13 11 10 9 9 9 8 8 8 8 12 12 13 12 12 12 11 10 10 9 10 11 11 11 11 11 11 13 17 18
39 29 32 31 30 41 32 48 40 41 46 44 44 39 36 29 27 21 17 13 12 11 13 13 12 10 10 9 9 9 10 10 12 13 13 13 12 12 12 11 12 12 13 13 13 13 14 15 19
34 29 28 28 29 34 36 40 42 38 38 46 43 40 35 31 27 20 17 16 16 15 16 17 16 15 14 12 12 11 12 13 14 14 15 14 14 14 13 13 13 14 14 14 14 14 15 15 19
22 24 23 24 27 44 39 41 43 39 38 35 33 36 32 27 23 19 18 17 18 18 19 20 19 19 18 16 12 12 12 12 13 15 17 16 14 14 14 14 14 15 15 15 15 15 16 16 18
26 25 32 36 39 43 33 40 46 32 32 31 29 27 23 21 20 19 19 19 19 20 20 20 20 20 18 17 13 11 11 11 12 13 15 15 14 14 14 14 14 15 16 16 16 16 17 18 20
26 28 34 41 41 39 29 42 40 36 33 31 29 24 20 19 20 19 20 20 19 19 19 17 17 17 15 14 13 12 10 10 13 13 15 15 15 15 16 15 15 16 16 16 16 17 17 17 21
29 37 28 28 30 35 36 40 39 35 32 28 27 21 19 17 17 17 17 16 16 15 15 14 13 13 11 10 9 9 9 8 8 11 13 14 15 15 15 16 14 16 16 17 16 17 18 20 22
28 25 35 32 41 43 37 40 41 34 36 29 25 22 21 19 17 15 14 13 13 12 11 11 11 10 9 9 9 10 9 9 9 11 14 14 15 14 14 15 16 16 17 17 17 18 20 21 23
28 33 29 27 31 44 43 40 30 32 27 29 24 22 19 18 16 15 13 12 10 10 9 9 8 8 9 8 8 8 9 10 10 12 14 14 14 14 14 14 14 15 16 17 18 20 22 24 26
30 33 33 33 36 35 34 39 25 27 24 25 24 20 18 15 13 13 11 10 10 9 9 8 8 7 9 8 8 9 10 11 12 12 13 13 13 13 13 13 14 15 17 18 19 21 24 26 28
Wind_Direction
277 276 281 294 280 282 259 253 86 64 78 133 184 84 90 127 118 101 142 133 122 134 133 130 120 113 103 92 83 76 68 62 55 47 52 44 43 44 41 37 34 40 47 47 45 44 41 35 36
277 276 285 289 291 282 263 192 87 75 92 68 285 142 132 133 148 127 133 132 125 134 139 133 129 129 122 116 110 92 76 63 62 56 52 49 48 46 47 48 38 37 45 48 48 39 35 27 33
281 275 281 284 295 290 311 61 68 64 178 199 145 188 162 143 134 134 133 130 127 135 140 136 130 131 128 126 122 115 103 95 86 76 57 50 51 49 48 49 50 48 42 41 48 42 35 30 42
283 273 275 274 273 266 277 100 70 68 240 218 196 71 187 181 143 149 128 125 127 136 139 135 130 130 132 130 126 120 113 107 98 86 77 57 58 51 48 47 46 46 48 45 46 45 36 30 38
282 272 262 267 270 275 277 82 63 69 11 272 197 167 180 169 144 117 128 126 122 129 138 136 131 126 123 123 121 116 107 100 95 90 82 72 70 69 57 55 57 54 54 52 54 54 47 37 36
260 264 257 249 268 275 255 262 31 314 258 247 225 201 179 187 118 134 133 128 123 122 130 130 132 125 120 121 119 104 100 92 86 82 75 73 63 71 63 59 59 59 59 60 60 62 53 39 36
257 255 249 252 262 274 256 245 309 34 262 232 203 207 195 162 140 140 130 125 126 124 130 128 131 133 128 121 118 113 105 95 84 76 68 61 54 35 54 47 51 53 59 60 61 64 59 47 36
257 254 249 250 254 265 254 250 242 282 240 220 212 204 190 166 145 130 132 128 134 132 135 134 129 125 125 125 120 111 107 99 89 83 78 70 64 53 55 52 55 59 62 66 64 62 58 51 45
258 252 246 243 251 253 249 247 238 233 233 229 226 210 205 139 121 122 131 139 140 138 136 135 130 126 124 122 121 115 111 106 100 97 92 86 81 75 68 68 64 63 67 69 66 62 54 48 45
252 250 250 251 248 250 245 246 247 242 244 239 233 236 102 130 133 137 142 138 140 141 144 140 136 131 126 125 123 121 121 122 118 116 108 103 102 98 89 85 79 78 79 83 83 77 73 74 75
252 249 252 253 254 245 243 243 245 244 242 233 247 234 121 140 140 142 149 149 146 143 140 146 140 135 131 127 127 126 125 128 131 127 124 120 112 106 105 103 102 102 103 103 99 94 94 90 90
250 248 248 253 258 244 238 241 247 242 243 241 248 139 133 139 153 149 150 150 147 143 143 145 143 138 136 131 131 128 125 130 136 136 132 119 117 111 110 108 108 106 106 101 97 89 81 80 72
251 250 245 251 252 246 242 243 247 240 247 246 239 226 153 140 154 149 152 149 146 148 145 148 143 141 141 135 134 132 132 135 137 137 137 120 112 109 105 100 99 101 98 93 91 85 74 69 61
257 251 245 249 247 245 243 248 247 243 251 244 218 223 201 152 151 155 152 156 153 151 152 150 149 142 137 140 140 140 136 136 137 139 137 120 110 103 105 100 101 94 90 88 79 70 61 54 47
259 249 248 247 243 242 242 244 244 247 248 242 239 244 243 220 201 162 164 165 161 158 155 156 156 154 148 145 143 140 141 138 133 135 133 120 105 91 88 95 93 90 74 60 52 44 36 35 34
252 253 238 245 240 241 244 243 245 248 244 246 246 249 251 248 184 178 168 171 170 172 169 164 161 161 160 156 151 153 147 134 135 131 117 126 108 86 74 74 78 60 43 36 28 21 19 20 19
245 244 239 240 236 243 242 246 246 247 244 248 249 253 256 261 263 187 176 177 176 179 180 179 178 175 175 171 169 173 166 158 149 116 103 111 46 23 41 35 28 16 11 8 6 4 2 0 360
240 241 245 236 238 240 242 245 250 246 245 248 252 255 258 261 241 189 188 185 186 192 190 191 190 188 189 209 244 269 245 249 258 270 308 321 327 337 344 348 348 349 348 348 348 347 348 346 346
251 242 249 243 241 241 241 242 251 249 248 249 254 257 260 257 260 268 240 193 208 211 208 200 199 205 212 249 239 273 262 277 285 288 289 293 302 307 315 323 327 332 332 332 335 338 336 336 340
253 246 246 249 244 245 245 243 250 251 248 251 254 256 261 262 259 258 269 264 240 207 214 218 214 224 222 240 253 290 288 301 297 296 291 288 285 288 293 301 307 314 320 320 322 330 334 334 337
247 247 245 246 249 248 249 248 248 251 248 254 254 257 261 264 265 265 267 267 266 258 250 241 244 240 230 245 265 293 301 303 301 297 296 292 288 285 286 292 300 302 308 308 310 314 321 326 334
243 249 252 250 246 244 248 247 250 252 249 250 251 253 256 261 263 266 268 264 267 271 278 280 278 265 257 260 259 263 280 289 294 299 301 296 292 289 290 291 296 296 300 300 302 306 314 320 322
247 249 252 253 248 249 249 250 251 254 254 248 251 253 256 260 263 264 265 268 273 279 282 285 286 287 284 262 262 266 279 291 303 304 305 305 302 297 295 295 299 301 302 303 305 306 309 312 320
243 244 249 253 251 246 247 247 251 251 253 256 257 254 256 259 264 263 266 270 276 283 287 288 288 288 286 286 271 264 271 285 297 306 308 309 309 308 305 306 307 308 308 307 309 310 312 314 318
230 232 241 245 245 246 250 248 247 255 257 259 259 258 257 258 260 262 264 270 277 283 289 292 293 291 290 285 279 270 271 276 294 300 310 310 311 313 313 314 315 316 317 316 316 317 317 319 321
230 231 244 244 244 249 254 249 251 254 261 263 266 265 260 260 264 267 271 274 279 285 290 293 297 296 297 298 295 287 278 286 301 308 314 319 319 318 320 319 320 322 324 323 323 324 325 327 326
240 238 251 255 256 253 254 257 262 257 261 266 262 260 260 262 268 271 275 278 283 288 292 296 299 305 307 309 314 312 306 300 307 321 323 324 326 327 329 331 329 334 334 334 334 335 332 332 331
243 238 241 251 246 250 257 256 254 256 256 261 260 259 261 266 272 274 276 281 286 291 296 301 306 305 312 318 321 319 319 318 320 328 327 328 330 332 333 333 334 335 337 339 338 335 336 334 333
241 239 248 250 252 249 254 257 262 259 261 257 262 260 262 265 269 273 278 284 288 294 299 303 307 311 316 323 327 327 328 328 330 329 330 333 336 337 338 340 342 343 342 345 341 339 337 334 333
246 246 241 247 250 254 258 257 268 264 268 266 264 263 267 268 268 270 274 279 286 291 296 299 303 310 314 325 333 333 334 333 333 334 337 340 342 346 349 352 348 347 346 346 343 339 336 334 331